OE3PDB-10 Weather Reports


Display with metric or nautical units.
time (UTC)temp
F
wind
direction
speed
MPH
gust
MPH
rain 1hr
in
rain 24hr
in
rain mn
in
humidity
%
barometer
mb
20260505190044 64 247 0.0 0.0 0.00 0.00 0.00 52 1111.0
20260505185044 64 247 0.0 0.0 0.00 0.00 0.00 51 1111.0
20260505184044 64 270 0.0 0.0 0.00 0.00 0.00 50 1111.0
20260505183044 65 270 0.0 0.0 0.00 0.00 0.00 49 1111.0
20260505182044 66 270 0.0 0.0 0.00 0.00 0.00 48 1111.0
20260505181044 66 247 0.0 0.0 0.00 0.00 0.00 47 1111.0
20260505180044 67 270 0.0 0.0 0.00 0.00 0.00 46 1111.0
20260505175044 68 247 0.0 0.0 0.00 0.00 0.00 46 1111.0
20260505174044 68 247 0.0 0.0 0.00 0.00 0.00 45 1111.0
20260505173044 69 270 0.0 0.0 0.00 0.00 0.00 44 1111.0
20260505172044 70 270 0.0 0.0 0.00 0.00 0.00 44 1111.0
20260505171044 71 270 0.0 0.0 0.00 0.00 0.00 43 1111.0
20260505170044 71 270 0.0 0.0 0.00 0.00 0.00 42 1111.0
20260505165044 71 270 0.0 0.0 0.00 0.00 0.00 42 1111.0
20260505164044 71 270 0.0 0.0 0.00 0.00 0.00 42 1111.0
20260505163044 72 270 0.0 0.0 0.00 0.00 0.00 41 1111.0
20260505162044 73 270 0.0 0.0 0.00 0.00 0.00 40 1111.0
20260505161044 73 270 0.0 0.0 0.00 0.00 0.00 39 1111.0
20260505153044 75 225 0.0 0.0 0.00 0.00 0.00 35 1111.0
20260505152044 76 202 0.0 0.0 0.00 0.00 0.00 34 1111.0
20260505151044 77 270 0.0 0.0 0.00 0.00 0.00 33 1111.0
20260505124044 79 270 0.0 0.0 0.00 0.00 0.00 28 1111.0
20260505123044 79 247 0.0 0.0 0.00 0.00 0.00 28 1111.0
20260505122044 79 247 0.0 0.0 0.00 0.00 0.00 29 1111.0
20260505121044 78 270 0.0 0.0 0.00 0.00 0.00 31 1111.0
20260505120044 77 270 0.0 0.0 0.00 0.00 0.00 32 1111.0
20260505115044 76 247 0.0 0.0 0.00 0.00 0.00 35 1111.0
20260505114044 75 270 0.0 0.0 0.00 0.00 0.00 37 1111.0
20260505113044 74 270 0.0 0.0 0.00 0.00 0.00 41 1111.0
20260505112044 73 247 0.0 0.0 0.00 0.00 0.00 41 1111.0
20260505111044 73 270 0.0 0.0 0.00 0.00 0.00 43 1111.0
20260505101045 70 270 0.0 0.0 0.00 0.00 0.00 44 1111.0
20260505100045 70 247 0.0 0.0 0.00 0.00 0.00 44 1111.0
20260505095045 71 270 0.0 0.0 0.00 0.00 0.00 44 1111.0
20260505094045 70 247 0.0 0.0 0.00 0.00 0.00 44 1111.0
20260505093045 70 270 0.0 0.0 0.00 0.00 0.00 43 1111.0
20260505092045 71 270 0.0 0.0 0.00 0.00 0.00 42 1111.0
20260505091045 72 247 0.0 0.0 0.00 0.00 0.00 42 1111.0
20260505090045 73 247 0.0 0.0 0.00 0.00 0.00 42 1111.0
20260505085045 73 270 0.0 0.0 0.00 0.00 0.00 42 1111.0
20260505084045 73 270 0.0 0.0 0.00 0.00 0.00 42 1111.0
20260505083045 73 270 0.0 0.0 0.00 0.00 0.00 41 1111.0
20260505082045 74 247 0.0 0.0 0.00 0.00 0.00 41 1111.0
20260505081045 74 247 0.0 0.0 0.00 0.00 0.00 43 1111.0
20260505080045 73 270 0.0 0.0 0.00 0.00 0.00 42 1111.0
20260505075045 73 247 0.0 0.0 0.00 0.00 0.00 42 1111.0
20260505074045 73 225 0.0 0.0 0.00 0.00 0.00 42 1111.0
20260505073045 73 247 0.0 0.0 0.00 0.00 0.00 45 1111.0
20260505072045 72 247 0.0 0.0 0.00 0.00 0.00 46 1111.0
20260505071045 70 247 0.0 0.0 0.00 0.00 0.00 51 1111.0
20260505070045 67 247 0.0 0.0 0.00 0.00 0.00 57 1111.0
20260505065045 60 270 0.0 0.0 0.00 0.00 0.00 64 1111.0
20260505064045 59 270 0.0 0.0 0.00 0.00 0.00 63 1111.0
20260505063045 59 270 0.0 0.0 0.00 0.00 0.00 64 1111.0
20260505062045 58 270 0.0 0.0 0.00 0.00 0.00 64 1111.0
20260505061045 58 270 0.0 0.0 0.00 0.00 0.00 63 1111.0
20260505060045 59 247 0.0 0.0 0.00 0.00 0.00 63 1111.0
20260505055045 58 247 0.0 0.0 0.00 0.00 0.00 64 1111.0
20260505054045 57 247 0.0 0.0 0.00 0.00 0.00 64 1111.0
20260505053045 57 247 0.0 0.0 0.00 0.00 0.00 64 1111.0
20260505052045 57 247 0.0 0.0 0.00 0.00 0.00 65 1111.0
20260505051045 55 247 0.0 0.0 0.00 0.00 0.00 67 1111.0
20260505041045 51 247 0.0 0.0 0.00 0.00 0.00 70 1111.0
20260505040045 51 247 0.0 0.0 0.00 0.00 0.00 69 1111.0
20260505035045 51 247 0.0 0.0 0.00 0.00 0.00 69 1111.0
20260505034045 51 247 0.0 0.0 0.00 0.00 0.00 68 1111.0
20260505033045 51 247 0.0 0.0 0.00 0.00 0.00 67 1111.0
20260505032045 52 247 0.0 0.0 0.00 0.00 0.00 67 1111.0
20260505031045 52 247 0.0 0.0 0.00 0.00 0.00 67 1111.0
20260505030045 53 247 0.0 0.0 0.00 0.00 0.00 67 1111.0
20260505025045 53 247 0.0 0.0 0.00 0.00 0.00 67 1111.0
20260505024045 53 247 0.0 0.0 0.00 0.00 0.00 67 1111.0
20260505023045 53 247 0.0 0.0 0.00 0.00 0.00 66 1111.0
20260505022045 53 247 0.0 0.0 0.00 0.00 0.00 66 1111.0
20260505021045 54 247 0.0 0.0 0.00 0.00 0.00 64 1111.0
20260505020045 54 247 0.0 0.0 0.00 0.00 0.00 63 1111.0
20260505015045 54 247 0.0 0.0 0.00 0.00 0.00 63 1111.0
20260505014045 54 247 0.0 0.0 0.00 0.00 0.00 62 1111.0
20260505013046 55 247 0.0 0.0 0.00 0.00 0.00 61 1111.0
20260505012046 55 247 0.0 0.0 0.00 0.00 0.00 61 1111.0
20260505011046 56 247 0.0 0.0 0.00 0.00 0.00 61 1111.0
20260505010046 56 247 0.0 0.0 0.00 0.00 0.00 62 1111.0
20260505005046 56 247 0.0 0.0 0.00 0.00 0.00 62 1111.0
20260505004046 56 270 0.0 0.0 0.00 0.00 0.00 61 1111.0
20260505003046 56 247 0.0 0.0 0.00 0.00 0.00 61 1111.0
20260505002046 57 270 0.0 0.0 0.00 0.00 0.00 60 1111.0
20260505001046 57 247 0.0 0.0 0.00 0.00 0.00 59 1111.0
20260504235044 57 247 0.0 0.0 0.00 0.00 0.00 58 1111.0
20260504234044 58 270 0.0 0.0 0.00 0.00 0.00 58 1111.0
20260504233044 58 270 0.0 0.0 0.00 0.00 0.00 57 1111.0
20260504232045 59 270 0.0 0.0 0.00 0.00 0.00 57 1111.0
20260504231045 59 247 0.0 0.0 0.00 0.00 0.00 56 1111.0
20260504230045 59 270 0.0 0.0 0.00 0.00 0.00 56 1111.0
20260504225045 59 247 0.0 0.0 0.00 0.00 0.00 55 1111.0
20260504224045 60 270 0.0 0.0 0.00 0.00 0.00 54 1111.0
20260504223045 60 247 0.0 0.0 0.00 0.00 0.00 54 1111.0
20260504222045 60 270 0.0 0.0 0.00 0.00 0.00 53 1111.0
20260504221045 60 225 0.0 0.0 0.00 0.00 0.00 53 1111.0
20260504220045 61 247 0.0 0.0 0.00 0.00 0.00 52 1111.0
20260504215045 61 270 0.0 0.0 0.00 0.00 0.00 51 1111.0
20260504214045 62 270 0.0 0.0 0.00 0.00 0.00 50 1111.0
20260504213045 62 270 0.0 0.0 0.00 0.00 0.00 50 1111.0
20260504212045 62 270 0.0 0.0 0.00 0.00 0.00 50 1111.0
20260504211045 63 270 0.0 0.0 0.00 0.00 0.00 48 1111.0
20260504210045 63 270 0.0 0.0 0.00 0.00 0.00 48 1111.0
20260504205045 63 247 0.0 0.0 0.00 0.00 0.00 47 1111.0
20260504204045 64 247 0.0 0.0 0.00 0.00 0.00 46 1111.0
20260504203045 64 247 0.0 0.0 0.00 0.00 0.00 46 1111.0
20260504202045 65 270 0.0 0.0 0.00 0.00 0.00 44 1111.0
20260504201045 65 247 0.0 0.0 0.00 0.00 0.00 44 1111.0
20260504200045 66 247 0.0 0.0 0.00 0.00 0.00 43 1111.0
20260504195045 66 247 0.0 0.0 0.00 0.00 0.00 42 1111.0
20260504194045 66 247 0.0 0.0 0.00 0.00 0.00 42 1111.0
20260504193045 67 270 0.0 0.0 0.00 0.00 0.00 41 1111.0
20260504192045 67 270 0.0 0.0 0.00 0.00 0.00 41 1111.0
20260504191045 67 270 0.0 0.0 0.00 0.00 0.00 40 1111.0